Location: Oberwangen
(47.4286°N, 8.9679°E)
Time: 14:35:59
(UTC+00:00)

USA 81 - Pass Details

Date: 20 June 2021
Orbit: 784 x 789 km, 85.0° (Epoch: 12 June)

Event Time Altitude Azimuth Distance (km) Brightness Sun altitude
Rises 19:56:43 0° 354° (N) 3,288 8.1 -5.0°
Reaches altitude 10° 19:59:05 10° 354° (N) 2,354 7.4 -5.3°
Maximum altitude 20:04:23 90° 262° (W) 792 4.1 -5.9°
Drops below altitude 10° 20:09:38 10° 176° (S) 2,337 6.1 -6.5°
Sets 20:11:58 0° 177° (S) 3,261 6.8 -6.8°
Enters shadow 20:12:03 - 177° (S) 3,293 6.8 -6.8°
